Location: Condor
(52.3263°N, 114.5541°W)
Time: 22:19:22
(UTC+00:00)

Oscar 19 - Pass Details

Date: 16 December 2023
Orbit: 771 x 789 km, 98.9° (Epoch: 04 March)

Event Time Altitude Azimuth Distance (km) Brightness Sun altitude
Rises 12:40:37 0° 15° (NNE) 3,284 14.0 -26.2°
Reaches altitude 10° 12:42:57 10° 16° (NNE) 2,354 13.2 -25.9°
Maximum altitude 12:48:09 88° 106° (ESE) 795 10.6 -25.1°
Drops below altitude 10° 12:53:21 10° 197° (SSW) 2,346 13.0 -24.3°
Sets 12:55:40 0° 198° (SSW) 3,272 13.8 -24.0°
